Terminal Aerodrome Forecast
Issued by NWS

Home | Current Version | Previous Version | Graphics & Text | Print | Product List | Glossary On
Versions: 1 2 3 4 5 6 7 8 9 10 11 12 13 14 15 16 17 18 19 20 21 22 23 24 25 26 27 28 29 30 31 32 33 34 35 36 37 38 39 40 41 42 43 44 45 46 47 48 49 50
000
FTUS43 KLOT 271152
TAFGYY
TAF
KGYY 271152Z 2712/2812 01012G18KT 4SM -SHSN OVC015
      TEMPO 2712/2715 1 1/2SM -SHSN OVC010
     FM271600 01015G23KT P6SM -SHSN BKN025
     FM272000 03012G18KT P6SM BKN035
     FM280200 04010KT P6SM BKN040
     FM280900 03006KT P6SM SCT040=

USA.gov is the U.S. government's official web portal to all federal, state and local government web resources and services.